Time,TemperatureF,DewpointF,PressureIn,WindDirection,WindDirectionDegrees,WindSpeedMPH,WindSpeedGustMPH,Humidity,HourlyPrecipIn,Conditions,Clouds,dailyrainin,SoftwareType,DateUTC
2013-07-29 00:00:00,78.6,71.9,29.79,West,270,0.0,2.0,80,0.00,,,0.00,HomebrewedOnLinux,2013-07-29 04:00:00,
2013-07-29 00:05:00,78.6,72.0,29.79,West,281,1.0,2.0,80,0.00,,,0.00,HomebrewedOnLinux,2013-07-29 04:05:00,
2013-07-29 00:15:00,78.4,72.1,29.79,West,271,0.0,2.0,81,0.00,,,0.00,HomebrewedOnLinux,2013-07-29 04:15:00,
2013-07-29 00:20:00,78.4,72.1,29.79,West,271,0.0,2.0,81,0.00,,,0.00,HomebrewedOnLinux,2013-07-29 04:20:00,
2013-07-29 00:25:00,78.4,72.1,29.79,West,270,0.0,0.0,81,0.00,,,0.00,HomebrewedOnLinux,2013-07-29 04:25:00,
2013-07-29 00:30:00,78.4,72.1,29.79,West,270,0.0,1.0,81,0.00,,,0.00,HomebrewedOnLinux,2013-07-29 04:30:00,
2013-07-29 00:35:00,78.4,72.1,29.79,West,277,1.0,2.0,81,0.00,,,0.00,HomebrewedOnLinux,2013-07-29 04:35:00,
2013-07-29 00:40:00,78.3,72.2,29.79,WNW,285,1.0,2.0,82,0.00,,,0.00,HomebrewedOnLinux,2013-07-29 04:40:00,
2013-07-29 00:50:00,78.3,72.3,29.79,WNW,297,0.0,1.0,82,0.00,,,0.00,HomebrewedOnLinux,2013-07-29 04:50:00,
2013-07-29 01:00:00,78.3,72.5,29.79,WNW,286,1.0,2.0,83,0.00,,,0.00,HomebrewedOnLinux,2013-07-29 05:00:00,
2013-07-29 01:05:00,78.1,72.5,29.79,West,272,1.0,2.0,83,0.00,,,0.00,HomebrewedOnLinux,2013-07-29 05:05:00,
2013-07-29 01:10:00,78.1,72.5,29.79,West,270,0.0,0.0,83,0.00,,,0.00,HomebrewedOnLinux,2013-07-29 05:10:00,
2013-07-29 01:15:00,78.1,72.5,29.79,WNW,284,0.0,0.0,83,0.00,,,0.00,HomebrewedOnLinux,2013-07-29 05:15:00,
2013-07-29 01:20:00,78.1,72.5,29.77,WNW,299,0.0,2.0,83,0.00,,,0.00,HomebrewedOnLinux,2013-07-29 05:20:00,
2013-07-29 01:25:00,78.1,72.7,29.77,WNW,285,0.0,0.0,84,0.00,,,0.00,HomebrewedOnLinux,2013-07-29 05:25:00,
2013-07-29 01:35:00,78.1,72.8,29.79,West,270,0.0,0.0,84,0.00,,,0.00,HomebrewedOnLinux,2013-07-29 05:35:00,
2013-07-29 01:40:00,78.1,72.8,29.79,WNW,283,0.0,0.0,84,0.00,,,0.00,HomebrewedOnLinux,2013-07-29 05:40:00,
2013-07-29 01:45:00,77.9,72.7,29.79,West,276,0.0,2.0,84,0.00,,,0.00,HomebrewedOnLinux,2013-07-29 05:45:00,
2013-07-29 01:55:00,77.9,72.7,29.77,WNW,284,0.0,0.0,84,0.00,,,0.00,HomebrewedOnLinux,2013-07-29 05:55:00,
2013-07-29 02:00:00,77.9,73.0,29.77,WNW,293,0.0,0.0,85,0.00,,,0.00,HomebrewedOnLinux,2013-07-29 06:00:00,
2013-07-29 02:10:00,77.7,72.8,29.77,WNW,287,0.0,0.0,85,0.00,,,0.00,HomebrewedOnLinux,2013-07-29 06:10:00,
2013-07-29 02:15:00,77.7,72.8,29.77,WNW,282,0.0,0.0,85,0.00,,,0.00,HomebrewedOnLinux,2013-07-29 06:15:00,
2013-07-29 02:20:00,77.7,72.8,29.77,WNW,293,0.0,0.0,85,0.00,,,0.00,HomebrewedOnLinux,2013-07-29 06:20:00,
2013-07-29 02:25:00,77.7,72.8,29.77,WNW,293,0.0,0.0,85,0.00,,,0.00,HomebrewedOnLinux,2013-07-29 06:25:00,
2013-07-29 02:30:00,77.5,72.7,29.77,WNW,293,0.0,0.0,85,0.00,,,0.00,HomebrewedOnLinux,2013-07-29 06:30:00,
2013-07-29 02:40:00,77.5,73.0,29.77,WNW,293,0.0,0.0,86,0.00,,,0.00,HomebrewedOnLinux,2013-07-29 06:40:00,
2013-07-29 02:45:00,77.5,73.0,29.77,WNW,293,0.0,0.0,86,0.00,,,0.00,HomebrewedOnLinux,2013-07-29 06:45:00,
2013-07-29 02:50:00,77.4,72.8,29.77,West,260,0.0,2.0,86,0.00,,,0.00,HomebrewedOnLinux,2013-07-29 06:50:00,
2013-07-29 02:55:00,77.4,72.8,29.77,WSW,247,0.0,0.0,86,0.00,,,0.00,HomebrewedOnLinux,2013-07-29 06:55:00,
2013-07-29 03:00:00,77.4,72.8,29.77,WSW,247,0.0,0.0,86,0.00,,,0.00,HomebrewedOnLinux,2013-07-29 07:00:00,
2013-07-29 03:10:00,77.2,73.0,29.77,WSW,247,0.0,0.0,87,0.00,,,0.00,HomebrewedOnLinux,2013-07-29 07:10:00,
2013-07-29 03:20:00,77.0,72.8,29.77,WSW,255,0.0,0.0,87,0.00,,,0.00,HomebrewedOnLinux,2013-07-29 07:20:00,
2013-07-29 03:25:00,77.0,73.0,29.77,WSW,247,0.0,0.0,88,0.00,,,0.00,HomebrewedOnLinux,2013-07-29 07:25:00,
2013-07-29 03:30:00,76.8,73.0,29.77,West,264,0.0,0.0,88,0.00,,,0.00,HomebrewedOnLinux,2013-07-29 07:30:00,
2013-07-29 03:40:00,76.5,72.6,29.77,West,270,0.0,0.0,88,0.00,,,0.00,HomebrewedOnLinux,2013-07-29 07:40:00,
2013-07-29 03:45:00,76.5,72.6,29.77,West,270,0.0,0.0,88,0.00,,,0.00,HomebrewedOnLinux,2013-07-29 07:45:00,
2013-07-29 03:55:00,76.3,72.8,29.77,West,270,0.0,0.0,89,0.00,,,0.00,HomebrewedOnLinux,2013-07-29 07:55:00,
2013-07-29 04:00:00,76.1,72.6,29.77,West,270,0.0,0.0,89,0.00,,,0.00,HomebrewedOnLinux,2013-07-29 08:00:00,
2013-07-29 04:05:00,76.1,72.6,29.77,West,270,0.0,0.0,89,0.00,,,0.00,HomebrewedOnLinux,2013-07-29 08:05:00,
2013-07-29 04:10:00,76.1,72.6,29.77,West,270,0.0,0.0,89,0.00,,,0.00,HomebrewedOnLinux,2013-07-29 08:10:00,
2013-07-29 04:15:00,76.1,72.6,29.77,West,270,0.0,0.0,89,0.00,,,0.00,HomebrewedOnLinux,2013-07-29 08:15:00,
2013-07-29 04:20:00,75.9,72.4,29.77,West,270,0.0,0.0,89,0.00,,,0.00,HomebrewedOnLinux,2013-07-29 08:20:00,
2013-07-29 04:30:00,75.9,72.8,29.77,West,270,0.0,0.0,90,0.00,,,0.00,HomebrewedOnLinux,2013-07-29 08:30:00,
2013-07-29 04:35:00,75.9,72.8,29.79,West,270,0.0,0.0,90,0.00,,,0.00,HomebrewedOnLinux,2013-07-29 08:35:00,
2013-07-29 04:45:00,75.7,72.6,29.79,West,270,0.0,0.0,90,0.00,,,0.00,HomebrewedOnLinux,2013-07-29 08:45:00,
2013-07-29 04:50:00,75.7,72.6,29.79,West,270,0.0,0.0,90,0.00,,,0.00,HomebrewedOnLinux,2013-07-29 08:50:00,
2013-07-29 04:55:00,75.7,72.6,29.79,West,270,0.0,0.0,90,0.00,,,0.00,HomebrewedOnLinux,2013-07-29 08:55:00,
2013-07-29 05:05:00,75.6,72.7,29.79,West,270,0.0,0.0,91,0.00,,,0.00,HomebrewedOnLinux,2013-07-29 09:05:00,
2013-07-29 05:15:00,75.4,72.6,29.79,West,270,0.0,0.0,91,0.00,,,0.00,HomebrewedOnLinux,2013-07-29 09:15:00,
2013-07-29 05:20:00,75.4,72.6,29.79,West,270,0.0,0.0,91,0.00,,,0.00,HomebrewedOnLinux,2013-07-29 09:20:00,
2013-07-29 05:30:00,75.4,72.6,29.79,West,270,0.0,0.0,91,0.00,,,0.00,HomebrewedOnLinux,2013-07-29 09:30:00,
2013-07-29 05:40:00,75.2,72.4,29.79,West,270,0.0,0.0,91,0.00,,,0.00,HomebrewedOnLinux,2013-07-29 09:40:00,
2013-07-29 05:45:00,75.2,72.7,29.79,West,270,0.0,0.0,92,0.00,,,0.00,HomebrewedOnLinux,2013-07-29 09:45:00,
2013-07-29 05:55:00,75.2,72.7,29.79,West,270,0.0,0.0,92,0.00,,,0.00,HomebrewedOnLinux,2013-07-29 09:55:00,
2013-07-29 06:00:00,75.0,72.5,29.79,West,270,0.0,0.0,92,0.00,,,0.00,HomebrewedOnLinux,2013-07-29 10:00:00,
2013-07-29 06:05:00,75.0,72.9,29.79,West,270,0.0,0.0,93,0.00,,,0.00,HomebrewedOnLinux,2013-07-29 10:05:00,
2013-07-29 06:15:00,75.0,72.9,29.79,West,270,0.0,0.0,93,0.00,,,0.00,HomebrewedOnLinux,2013-07-29 10:15:00,
2013-07-29 06:25:00,74.8,72.7,29.77,West,270,0.0,0.0,93,0.00,,,0.00,HomebrewedOnLinux,2013-07-29 10:25:00,
2013-07-29 06:35:00,74.7,72.5,29.79,West,270,0.0,0.0,93,0.00,,,0.00,HomebrewedOnLinux,2013-07-29 10:35:00,
2013-07-29 06:45:00,74.7,72.5,29.79,West,270,0.0,0.0,93,0.00,,,0.00,HomebrewedOnLinux,2013-07-29 10:45:00,
2013-07-29 06:50:00,74.5,72.3,29.82,West,270,0.0,0.0,93,0.00,,,0.00,HomebrewedOnLinux,2013-07-29 10:50:00,
2013-07-29 06:55:00,74.7,72.8,29.82,West,270,0.0,0.0,94,0.00,,,0.00,HomebrewedOnLinux,2013-07-29 10:55:00,
2013-07-29 07:00:00,74.7,72.8,29.82,West,270,0.0,0.0,94,0.00,,,0.00,HomebrewedOnLinux,2013-07-29 11:00:00,
2013-07-29 07:05:00,74.7,72.8,29.82,West,270,0.0,0.0,94,0.00,,,0.00,HomebrewedOnLinux,2013-07-29 11:05:00,
2013-07-29 07:15:00,74.7,72.8,29.82,West,272,0.0,0.0,94,0.00,,,0.00,HomebrewedOnLinux,2013-07-29 11:15:00,
2013-07-29 07:25:00,74.8,73.0,29.82,WNW,294,0.0,0.0,94,0.00,,,0.00,HomebrewedOnLinux,2013-07-29 11:25:00,
2013-07-29 07:35:00,74.8,73.0,29.82,WNW,293,0.0,0.0,94,0.00,,,0.00,HomebrewedOnLinux,2013-07-29 11:35:00,
2013-07-29 07:40:00,75.0,73.2,29.82,West,279,0.0,0.0,94,0.00,,,0.00,HomebrewedOnLinux,2013-07-29 11:40:00,
2013-07-29 07:45:00,75.2,73.4,29.82,West,270,0.0,0.0,94,0.00,,,0.00,HomebrewedOnLinux,2013-07-29 11:45:00,
2013-07-29 07:50:00,75.2,73.3,29.82,West,270,0.0,0.0,94,0.00,,,0.00,HomebrewedOnLinux,2013-07-29 11:50:00,
2013-07-29 08:00:00,75.6,73.8,29.82,WSW,258,0.0,0.0,94,0.00,,,0.00,HomebrewedOnLinux,2013-07-29 12:00:00,
2013-07-29 08:05:00,75.7,74.2,29.85,WSW,247,0.0,0.0,95,0.00,,,0.00,HomebrewedOnLinux,2013-07-29 12:05:00,
2013-07-29 08:10:00,75.7,74.2,29.85,WSW,247,0.0,0.0,95,0.00,,,0.00,HomebrewedOnLinux,2013-07-29 12:10:00,
2013-07-29 08:15:00,75.9,74.4,29.85,WSW,247,0.0,0.0,95,0.00,,,0.00,HomebrewedOnLinux,2013-07-29 12:15:00,
2013-07-29 08:25:00,76.3,74.4,29.85,WSW,247,0.0,0.0,94,0.00,,,0.00,HomebrewedOnLinux,2013-07-29 12:25:00,
2013-07-29 08:35:00,76.6,74.8,29.85,WSW,247,0.0,0.0,94,0.00,,,0.00,HomebrewedOnLinux,2013-07-29 12:35:00,
2013-07-29 08:45:00,76.8,75.0,29.85,West,270,0.0,0.0,94,0.00,,,0.00,HomebrewedOnLinux,2013-07-29 12:45:00,
2013-07-29 08:50:00,77.0,75.0,29.85,West,270,0.0,0.0,94,0.00,,,0.00,HomebrewedOnLinux,2013-07-29 12:50:00,
2013-07-29 08:55:00,77.4,75.2,29.85,WNW,286,0.0,0.0,93,0.00,,,0.00,HomebrewedOnLinux,2013-07-29 12:55:00,
2013-07-29 09:00:00,77.5,75.3,29.85,WNW,293,0.0,0.0,93,0.00,,,0.00,HomebrewedOnLinux,2013-07-29 13:00:00,
2013-07-29 09:10:00,77.9,75.3,29.85,West,270,0.0,0.0,92,0.00,,,0.00,HomebrewedOnLinux,2013-07-29 13:10:00,
2013-07-29 09:20:00,78.1,75.6,29.85,West,270,0.0,0.0,92,0.00,,,0.00,HomebrewedOnLinux,2013-07-29 13:20:00,
2013-07-29 09:25:00,78.4,75.8,29.85,North,6,0.0,1.0,92,0.00,,,0.00,HomebrewedOnLinux,2013-07-29 13:25:00,
2013-07-29 09:30:00,78.8,75.7,29.85,NE,39,1.0,2.0,90,0.00,,,0.00,HomebrewedOnLinux,2013-07-29 13:30:00,
2013-07-29 09:35:00,79.0,75.7,29.85,East,90,1.0,2.0,90,0.00,,,0.00,HomebrewedOnLinux,2013-07-29 13:35:00,
2013-07-29 09:45:00,79.2,75.6,29.85,East,85,0.0,1.0,89,0.00,,,0.00,HomebrewedOnLinux,2013-07-29 13:45:00,
2013-07-29 09:55:00,79.7,75.8,29.82,NE,48,0.0,0.0,88,0.00,,,0.00,HomebrewedOnLinux,2013-07-29 13:55:00,
2013-07-29 10:00:00,79.7,75.5,29.82,ESE,116,2.0,3.0,87,0.00,,,0.00,HomebrewedOnLinux,2013-07-29 14:00:00,
2013-07-29 10:05:00,80.2,75.9,29.85,South,181,1.0,2.0,87,0.00,,,0.00,HomebrewedOnLinux,2013-07-29 14:05:00,
2013-07-29 10:15:00,81.0,75.4,29.85,WSW,243,1.0,2.0,83,0.00,,,0.00,HomebrewedOnLinux,2013-07-29 14:15:00,
2013-07-29 10:25:00,81.7,74.9,29.85,WSW,255,1.0,3.0,80,0.00,,,0.00,HomebrewedOnLinux,2013-07-29 14:25:00,
2013-07-29 10:30:00,82.0,75.2,29.85,SW,227,1.0,2.0,80,0.00,,,0.00,HomebrewedOnLinux,2013-07-29 14:30:00,
2013-07-29 10:35:00,82.0,75.1,29.85,ENE,78,1.0,2.0,80,0.00,,,0.00,HomebrewedOnLinux,2013-07-29 14:35:00,
2013-07-29 10:40:00,82.2,75.1,29.85,ENE,68,0.0,0.0,79,0.00,,,0.00,HomebrewedOnLinux,2013-07-29 14:40:00,
2013-07-29 10:50:00,82.4,74.5,29.85,West,279,1.0,2.0,77,0.00,,,0.00,HomebrewedOnLinux,2013-07-29 14:50:00,
2013-07-29 10:55:00,82.6,74.5,29.85,SSW,209,1.0,2.0,77,0.00,,,0.00,HomebrewedOnLinux,2013-07-29 14:55:00,
2013-07-29 11:05:00,83.3,75.3,29.85,SE,134,1.0,2.0,77,0.00,,,0.00,HomebrewedOnLinux,2013-07-29 15:05:00,
2013-07-29 11:10:00,83.3,75.6,29.85,WNW,292,2.0,3.0,78,0.00,,,0.00,HomebrewedOnLinux,2013-07-29 15:10:00,
2013-07-29 11:20:00,83.5,75.7,29.85,NNW,336,1.0,3.0,78,0.00,,,0.00,HomebrewedOnLinux,2013-07-29 15:20:00,
2013-07-29 11:30:00,83.7,75.5,29.85,South,175,1.0,3.0,76,0.00,,,0.00,HomebrewedOnLinux,2013-07-29 15:30:00,
2013-07-29 11:35:00,83.7,75.7,29.82,West,278,1.0,3.0,77,0.00,,,0.00,HomebrewedOnLinux,2013-07-29 15:35:00,
2013-07-29 11:40:00,83.8,75.4,29.82,WSW,257,2.0,4.0,76,0.00,,,0.00,HomebrewedOnLinux,2013-07-29 15:40:00,
2013-07-29 11:45:00,84.0,76.0,29.82,West,275,0.0,2.0,77,0.00,,,0.00,HomebrewedOnLinux,2013-07-29 15:45:00,
2013-07-29 11:50:00,84.2,75.9,29.85,WNW,285,1.0,2.0,76,0.00,,,0.00,HomebrewedOnLinux,2013-07-29 15:50:00,
2013-07-29 11:55:00,84.2,75.5,29.85,SSE,157,1.0,2.0,75,0.00,,,0.00,HomebrewedOnLinux,2013-07-29 15:55:00,
2013-07-29 12:05:00,83.8,75.7,29.85,West,270,0.0,0.0,77,0.00,,,0.00,HomebrewedOnLinux,2013-07-29 16:05:00,
2013-07-29 12:10:00,83.5,75.5,29.85,West,273,1.0,2.0,77,0.00,,,0.00,HomebrewedOnLinux,2013-07-29 16:10:00,
2013-07-29 12:15:00,83.1,75.5,29.85,WSW,255,1.0,2.0,78,0.00,,,0.00,HomebrewedOnLinux,2013-07-29 16:15:00,
2013-07-29 12:20:00,83.3,75.6,29.85,West,271,0.0,1.0,78,0.00,,,0.00,HomebrewedOnLinux,2013-07-29 16:20:00,
2013-07-29 12:30:00,83.8,75.4,29.85,SW,228,1.0,2.0,76,0.00,,,0.00,HomebrewedOnLinux,2013-07-29 16:30:00,
2013-07-29 12:35:00,84.0,75.6,29.88,WNW,290,0.0,2.0,76,0.00,,,0.00,HomebrewedOnLinux,2013-07-29 16:35:00,
2013-07-29 12:40:00,84.2,75.4,29.88,NNE,17,0.0,2.0,75,0.00,,,0.00,HomebrewedOnLinux,2013-07-29 16:40:00,
2013-07-29 12:50:00,84.2,75.5,29.85,WNW,286,2.0,3.0,75,0.00,,,0.00,HomebrewedOnLinux,2013-07-29 16:50:00,
2013-07-29 12:55:00,84.0,75.5,29.85,North,3,0.0,2.0,76,0.00,,,0.00,HomebrewedOnLinux,2013-07-29 16:55:00,
2013-07-29 13:00:00,83.7,75.7,29.85,NE,45,0.0,1.0,77,0.00,,,0.00,HomebrewedOnLinux,2013-07-29 17:00:00,
2013-07-29 13:05:00,83.5,76.1,29.85,NNE,22,0.0,0.0,79,0.00,,,0.00,HomebrewedOnLinux,2013-07-29 17:05:00,
2013-07-29 13:15:00,84.0,76.4,29.85,South,170,0.0,1.0,78,0.00,,,0.00,HomebrewedOnLinux,2013-07-29 17:15:00,
2013-07-29 13:25:00,84.7,75.2,29.82,South,179,1.0,3.0,73,0.00,,,0.00,HomebrewedOnLinux,2013-07-29 17:25:00,
2013-07-29 13:35:00,84.9,75.4,29.82,SE,132,2.0,3.0,73,0.00,,,0.00,HomebrewedOnLinux,2013-07-29 17:35:00,
2013-07-29 13:40:00,84.7,75.9,29.82,North,4,0.0,1.0,75,0.00,,,0.00,HomebrewedOnLinux,2013-07-29 17:40:00,
2013-07-29 13:50:00,84.2,75.7,29.82,WNW,285,1.0,3.0,76,0.00,,,0.00,HomebrewedOnLinux,2013-07-29 17:50:00,
2013-07-29 14:00:00,84.6,74.7,29.82,WSW,241,3.0,4.0,72,0.00,,,0.00,HomebrewedOnLinux,2013-07-29 18:00:00,
2013-07-29 14:05:00,84.0,73.3,29.85,SW,236,2.0,4.0,70,0.00,,,0.00,HomebrewedOnLinux,2013-07-29 18:05:00,
2013-07-29 14:10:00,83.7,73.2,29.85,WSW,248,2.0,5.0,71,0.00,,,0.00,HomebrewedOnLinux,2013-07-29 18:10:00,
2013-07-29 14:20:00,83.8,73.2,29.85,West,279,2.0,3.0,70,0.00,,,0.00,HomebrewedOnLinux,2013-07-29 18:20:00,
2013-07-29 14:25:00,83.3,72.5,29.85,SW,220,2.0,3.0,70,0.00,,,0.00,HomebrewedOnLinux,2013-07-29 18:25:00,
2013-07-29 14:35:00,82.4,71.9,29.85,North,4,0.0,2.0,71,0.00,,,0.00,HomebrewedOnLinux,2013-07-29 18:35:00,
2013-07-29 14:40:00,81.7,72.1,29.85,NW,304,1.0,3.0,73,0.00,,,0.00,HomebrewedOnLinux,2013-07-29 18:40:00,
2013-07-29 14:45:00,81.5,72.4,29.85,West,262,3.0,6.0,74,0.00,,,0.00,HomebrewedOnLinux,2013-07-29 18:45:00,
2013-07-29 14:55:00,81.9,72.9,29.85,WSW,256,3.0,6.0,74,0.00,,,0.00,HomebrewedOnLinux,2013-07-29 18:55:00,
2013-07-29 15:00:00,81.5,72.5,29.85,WNW,285,2.0,3.0,74,0.00,,,0.00,HomebrewedOnLinux,2013-07-29 19:00:00,
2013-07-29 15:10:00,80.4,72.1,29.85,WSW,253,2.0,4.0,76,0.00,,,0.00,HomebrewedOnLinux,2013-07-29 19:10:00,
2013-07-29 15:15:00,79.2,71.7,29.85,NW,308,1.0,2.0,78,0.08,,,0.08,HomebrewedOnLinux,2013-07-29 19:15:00,
2013-07-29 15:25:00,78.3,73.1,29.85,WSW,251,1.0,3.0,84,0.08,,,0.08,HomebrewedOnLinux,2013-07-29 19:25:00,
2013-07-29 15:30:00,78.4,74.0,29.85,SW,236,2.0,3.0,86,0.08,,,0.08,HomebrewedOnLinux,2013-07-29 19:30:00,
2013-07-29 15:35:00,78.4,74.2,29.82,West,267,1.0,4.0,87,0.08,,,0.08,HomebrewedOnLinux,2013-07-29 19:35:00,
2013-07-29 15:45:00,78.1,74.3,29.82,SW,215,1.0,4.0,88,0.08,,,0.08,HomebrewedOnLinux,2013-07-29 19:45:00,
2013-07-29 15:50:00,77.9,74.4,29.82,SSW,204,0.0,0.0,89,0.08,,,0.08,HomebrewedOnLinux,2013-07-29 19:50:00,
2013-07-29 15:55:00,77.9,74.7,29.82,South,179,0.0,0.0,90,0.08,,,0.08,HomebrewedOnLinux,2013-07-29 19:55:00,
2013-07-29 16:00:00,78.1,75.0,29.82,WSW,245,0.0,0.0,90,0.08,,,0.08,HomebrewedOnLinux,2013-07-29 20:00:00,
2013-07-29 16:10:00,78.8,75.7,29.82,NE,48,0.0,2.0,90,0.08,,,0.08,HomebrewedOnLinux,2013-07-29 20:10:00,
2013-07-29 16:20:00,79.2,76.0,29.82,SW,234,0.0,1.0,90,0.00,,,0.08,HomebrewedOnLinux,2013-07-29 20:20:00,
2013-07-29 16:25:00,79.3,76.3,29.82,West,269,1.0,3.0,90,0.00,,,0.08,HomebrewedOnLinux,2013-07-29 20:25:00,
2013-07-29 16:30:00,79.3,76.1,29.82,WNW,298,0.0,0.0,90,0.00,,,0.08,HomebrewedOnLinux,2013-07-29 20:30:00,
2013-07-29 16:35:00,79.5,76.5,29.82,ESE,117,0.0,2.0,90,0.00,,,0.08,HomebrewedOnLinux,2013-07-29 20:35:00,
2013-07-29 16:50:00,80.2,77.7,29.82,ESE,111,1.0,2.0,92,0.00,,,0.08,HomebrewedOnLinux,2013-07-29 20:50:00,
2013-07-29 16:55:00,80.4,77.9,29.82,ESE,105,0.0,0.0,92,0.00,,,0.08,HomebrewedOnLinux,2013-07-29 20:55:00,
2013-07-29 17:05:00,80.6,77.8,29.82,West,268,1.0,2.0,91,0.00,,,0.08,HomebrewedOnLinux,2013-07-29 21:05:00,
2013-07-29 17:10:00,80.4,77.9,29.82,WNW,285,0.0,1.0,92,0.00,,,0.08,HomebrewedOnLinux,2013-07-29 21:10:00,
2013-07-29 17:20:00,80.2,77.4,29.82,NNW,343,0.0,1.0,91,0.00,,,0.08,HomebrewedOnLinux,2013-07-29 21:20:00,
2013-07-29 17:25:00,80.2,77.4,29.82,North,5,0.0,0.0,91,0.00,,,0.08,HomebrewedOnLinux,2013-07-29 21:25:00,
2013-07-29 17:30:00,80.1,77.5,29.82,WNW,292,0.0,1.0,92,0.00,,,0.08,HomebrewedOnLinux,2013-07-29 21:30:00,
2013-07-29 17:35:00,80.1,77.5,29.82,NW,306,0.0,2.0,92,0.00,,,0.08,HomebrewedOnLinux,2013-07-29 21:35:00,
2013-07-29 17:40:00,80.1,77.4,29.82,North,349,0.0,0.0,92,0.00,,,0.08,HomebrewedOnLinux,2013-07-29 21:40:00,
2013-07-29 17:45:00,80.1,77.5,29.82,NNW,338,0.0,0.0,92,0.00,,,0.08,HomebrewedOnLinux,2013-07-29 21:45:00,
2013-07-29 17:55:00,80.6,77.8,29.82,WNW,295,1.0,2.0,91,0.00,,,0.08,HomebrewedOnLinux,2013-07-29 21:55:00,
2013-07-29 18:05:00,80.8,77.9,29.82,ENE,68,0.0,0.0,91,0.00,,,0.08,HomebrewedOnLinux,2013-07-29 22:05:00,
2013-07-29 18:15:00,81.0,78.1,29.82,South,184,0.0,0.0,91,0.00,,,0.08,HomebrewedOnLinux,2013-07-29 22:15:00,
2013-07-29 18:25:00,81.0,78.1,29.82,WSW,247,0.0,0.0,91,0.00,,,0.08,HomebrewedOnLinux,2013-07-29 22:25:00,
2013-07-29 18:35:00,80.6,77.5,29.82,West,270,0.0,0.0,90,0.00,,,0.08,HomebrewedOnLinux,2013-07-29 22:35:00,
2013-07-29 18:40:00,80.6,77.6,29.82,NNW,343,0.0,0.0,90,0.00,,,0.08,HomebrewedOnLinux,2013-07-29 22:40:00,
2013-07-29 18:45:00,80.2,77.4,29.82,NNW,337,0.0,0.0,91,0.04,,,0.12,HomebrewedOnLinux,2013-07-29 22:45:00,
2013-07-29 18:50:00,80.1,77.2,29.82,West,280,0.0,0.0,91,0.04,,,0.12,HomebrewedOnLinux,2013-07-29 22:50:00,
2013-07-29 19:00:00,79.9,77.8,29.82,NW,315,0.0,0.0,93,0.04,,,0.12,HomebrewedOnLinux,2013-07-29 23:00:00,
2013-07-29 19:05:00,80.1,78.4,29.82,NW,315,0.0,0.0,95,0.04,,,0.12,HomebrewedOnLinux,2013-07-29 23:05:00,
2013-07-29 19:15:00,80.1,78.7,29.82,NW,315,0.0,1.0,96,0.04,,,0.12,HomebrewedOnLinux,2013-07-29 23:15:00,
2013-07-29 19:20:00,80.1,78.8,29.82,NW,315,0.0,1.0,96,0.04,,,0.12,HomebrewedOnLinux,2013-07-29 23:20:00,
2013-07-29 19:25:00,80.1,78.8,29.82,NW,315,0.0,0.0,96,0.04,,,0.12,HomebrewedOnLinux,2013-07-29 23:25:00,
2013-07-29 19:30:00,80.1,78.8,29.82,NW,315,0.0,0.0,96,0.04,,,0.12,HomebrewedOnLinux,2013-07-29 23:30:00,
2013-07-29 19:35:00,79.9,78.6,29.82,NW,315,0.0,0.0,96,0.04,,,0.12,HomebrewedOnLinux,2013-07-29 23:35:00,
2013-07-29 19:45:00,79.7,78.5,29.82,NW,315,0.0,2.0,96,0.00,,,0.12,HomebrewedOnLinux,2013-07-29 23:45:00,
2013-07-29 19:50:00,79.7,78.5,29.85,NW,307,1.0,1.0,96,0.00,,,0.12,HomebrewedOnLinux,2013-07-29 23:50:00,
2013-07-29 19:55:00,79.7,78.7,29.85,West,270,1.0,1.0,97,0.00,,,0.12,HomebrewedOnLinux,2013-07-29 23:55:00,
2013-07-29 20:05:00,79.5,78.3,29.85,NW,315,0.0,0.0,96,0.00,,,0.12,HomebrewedOnLinux,2013-07-30 00:05:00,
2013-07-29 20:15:00,79.2,77.9,29.85,NW,315,0.0,0.0,96,0.00,,,0.12,HomebrewedOnLinux,2013-07-30 00:15:00,
2013-07-29 20:20:00,79.2,77.9,29.85,NW,315,0.0,0.0,96,0.00,,,0.12,HomebrewedOnLinux,2013-07-30 00:20:00,
2013-07-29 20:25:00,79.0,77.7,29.85,NW,315,0.0,0.0,96,0.00,,,0.12,HomebrewedOnLinux,2013-07-30 00:25:00,
2013-07-29 20:30:00,79.0,77.7,29.85,NW,315,0.0,0.0,96,0.00,,,0.12,HomebrewedOnLinux,2013-07-30 00:30:00,
2013-07-29 20:35:00,79.0,78.1,29.85,NW,315,0.0,0.0,97,0.00,,,0.12,HomebrewedOnLinux,2013-07-30 00:35:00,
2013-07-29 20:40:00,79.0,78.1,29.85,NW,315,0.0,0.0,97,0.00,,,0.12,HomebrewedOnLinux,2013-07-30 00:40:00,
2013-07-29 20:50:00,79.0,78.1,29.85,NW,315,0.0,0.0,97,0.00,,,0.12,HomebrewedOnLinux,2013-07-30 00:50:00,
2013-07-29 21:00:00,78.8,77.9,29.85,NW,315,0.0,0.0,97,0.00,,,0.12,HomebrewedOnLinux,2013-07-30 01:00:00,
2013-07-29 21:05:00,78.8,78.0,29.85,NW,315,0.0,0.0,98,0.00,,,0.12,HomebrewedOnLinux,2013-07-30 01:05:00,
2013-07-29 21:10:00,78.6,78.0,29.85,NW,315,0.0,0.0,98,0.00,,,0.12,HomebrewedOnLinux,2013-07-30 01:10:00,
2013-07-29 21:20:00,78.6,78.0,29.88,NW,315,0.0,0.0,98,0.00,,,0.12,HomebrewedOnLinux,2013-07-30 01:20:00,
2013-07-29 21:25:00,78.6,78.0,29.88,NW,315,0.0,0.0,98,0.00,,,0.12,HomebrewedOnLinux,2013-07-30 01:25:00,
2013-07-29 21:35:00,78.4,77.8,29.88,NW,315,0.0,0.0,98,0.00,,,0.12,HomebrewedOnLinux,2013-07-30 01:35:00,
2013-07-29 21:40:00,78.4,77.8,29.88,NW,315,0.0,0.0,98,0.00,,,0.12,HomebrewedOnLinux,2013-07-30 01:40:00,
2013-07-29 21:45:00,78.4,77.8,29.88,NW,315,0.0,0.0,98,0.00,,,0.12,HomebrewedOnLinux,2013-07-30 01:45:00,
2013-07-29 21:50:00,78.4,77.8,29.88,NW,315,0.0,0.0,98,0.00,,,0.12,HomebrewedOnLinux,2013-07-30 01:50:00,
2013-07-29 22:00:00,78.3,77.6,29.88,NW,315,0.0,0.0,98,0.00,,,0.12,HomebrewedOnLinux,2013-07-30 02:00:00,
2013-07-29 22:10:00,78.1,77.5,29.88,WNW,285,1.0,2.0,98,0.00,,,0.12,HomebrewedOnLinux,2013-07-30 02:10:00,
2013-07-29 22:20:00,77.7,76.8,29.91,NW,315,0.0,1.0,97,0.00,,,0.12,HomebrewedOnLinux,2013-07-30 02:20:00,
2013-07-29 22:25:00,77.5,76.5,29.91,NW,315,0.0,0.0,97,0.00,,,0.12,HomebrewedOnLinux,2013-07-30 02:25:00,
2013-07-29 22:30:00,77.4,76.1,29.91,NW,315,0.0,1.0,96,0.00,,,0.12,HomebrewedOnLinux,2013-07-30 02:30:00,
2013-07-29 22:40:00,77.2,75.9,29.91,NW,315,0.0,0.0,96,0.00,,,0.12,HomebrewedOnLinux,2013-07-30 02:40:00,
2013-07-29 22:50:00,77.0,75.8,29.94,NW,315,0.0,0.0,96,0.00,,,0.12,HomebrewedOnLinux,2013-07-30 02:50:00,
2013-07-29 22:55:00,76.8,75.8,29.94,NW,315,0.0,0.0,97,0.00,,,0.12,HomebrewedOnLinux,2013-07-30 02:55:00,
2013-07-29 23:05:00,76.8,75.9,29.91,NNE,23,0.0,0.0,97,0.00,,,0.12,HomebrewedOnLinux,2013-07-30 03:05:00,
2013-07-29 23:15:00,76.5,75.4,29.91,North,-999,-999.0,-999.0,97,0.00,,,0.12,HomebrewedOnLinux,2013-07-30 03:15:00,
2013-07-29 23:20:00,76.5,75.4,29.91,West,270,0.0,0.0,96,0.00,,,0.12,HomebrewedOnLinux,2013-07-30 03:20:00,
2013-07-29 23:25:00,76.5,75.5,29.91,NE,35,0.0,0.0,97,0.00,,,0.12,HomebrewedOnLinux,2013-07-30 03:25:00,
2013-07-29 23:30:00,76.3,75.4,29.91,WNW,293,1.0,1.0,97,0.00,,,0.12,HomebrewedOnLinux,2013-07-30 03:30:00,
2013-07-29 23:35:00,76.1,75.2,29.91,WNW,293,0.0,0.0,97,0.00,,,0.12,HomebrewedOnLinux,2013-07-30 03:35:00,
2013-07-29 23:45:00,76.1,75.2,29.91,West,270,0.0,0.0,97,0.00,,,0.12,HomebrewedOnLinux,2013-07-30 03:45:00,
2013-07-29 23:50:00,75.9,75.0,29.91,West,270,0.0,0.0,97,0.00,,,0.12,HomebrewedOnLinux,2013-07-30 03:50:00,
2013-07-29 23:55:00,75.9,75.0,29.91,West,270,0.0,0.0,97,0.00,,,0.12,HomebrewedOnLinux,2013-07-30 03:55:00,